"2009-08-18 00:00:00",1160929,4.405,59.77,3.383,0.263,17.44,107.2668,17.88,18.98,45.23,0,110.7,13.27,18.69,21.8
"2009-08-18 00:00:30",1160930,4.173,60.97,2.784,0.208,17.47,107.2626,17.87,18.97,45.36,0,110.7,13.27,18.68,23.0
"2009-08-18 00:01:00",1160931,4.365,56.93,8.99,0.549,17.48,107.2629,17.87,18.95,45.39,0,110.7,13.27,18.68,18.9
"2009-08-18 00:01:30",1160932,5.781,76.18,4.349,0.293,17.59,107.2653,17.88,18.94,45.49,0,110.7,13.27,18.69,38.2
"2009-08-18 00:02:00",1160933,5.388,78.93,3.941,0.138,17.51,107.2653,17.88,18.92,45.45,0,110.7,13.27,18.69,40.9
"2009-08-18 00:02:30",1160934,5.499,78.73,1.999,0.166,17.55,107.2683,17.88,18.92,45.58,0,110.7,13.27,18.70,40.7
"2009-08-18 00:03:00",1160935,6.014,80.2,4.023,0.226,17.65,107.2698,17.89,18.9,45.6,0,110.7,13.27,18.70,42.2
"2009-08-18 00:03:30",1160936,6.194,84.8,2.069,0.188,17.64,107.267,17.88,18.89,45.69,0,110.7,13.27,18.69,46.8
"2009-08-18 00:04:00",1160937,5.603,90,4.224,0.323,17.63,107.2556,17.85,18.89,45.76,0,110.7,13.27,18.66,52.0
"2009-08-18 00:04:30",1160938,5.273,80.8,4.069,0.281,17.61,107.2495,17.83,18.88,45.84,0,110.7,13.27,18.65,42.8
"2009-08-18 00:05:00",1160939,5.289,79.37,2.23,0.244,17.53,107.2436,17.82,18.87,45.9,0,110.7,13.27,18.63,41.4
"2009-08-18 00:05:30",1160940,5.246,75.53,4.082,0.15,17.53,107.2439,17.82,18.87,45.94,0,110.7,13.27,18.63,37.5
"2009-08-18 00:06:00",1160941,4.915,65.05,4.507,0.436,17.49,107.246,17.83,18.86,45.96,0,110.7,13.27,18.64,27.1
"2009-08-18 00:06:30",1160942,4.457,62.99,2.454,0.28,17.51,107.2496,17.84,18.85,45.91,0,110.7,13.27,18.65,25.0
"2009-08-18 00:07:00",1160943,4.351,75.54,4.963,0.264,17.4,107.2475,17.83,18.84,45.93,0,110.7,13.27,18.64,37.5
"2009-08-18 00:07:30",1160944,4.641,77.72,4.644,0.587,17.52,107.2529,17.84,18.83,45.93,0,110.7,13.27,18.66,39.7
"2009-08-18 00:08:00",1160945,5.392,80.9,9.15,0.456,17.59,107.2456,17.82,18.83,45.87,0,110.7,13.27,18.64,42.9
"2009-08-18 00:08:30",1160946,4.007,59.7,4.378,0.286,17.56,107.2359,17.8,18.82,45.92,0,110.7,13.27,18.61,21.7
"2009-08-18 00:09:00",1160947,3.473,63.59,6.033,0.248,17.54,107.2244,17.77,18.81,45.98,0,110.7,13.27,18.58,25.6
"2009-08-18 00:09:30",1160948,3.486,67.94,2.802,0.316,17.48,107.2219,17.76,18.81,45.95,0,110.7,13.26,18.58,29.9
"2009-08-18 00:10:00",1160949,2.759,72.56,6.985,0.271,17.41,107.2252,17.77,18.8,45.93,0,110.7,13.26,18.59,34.6
"2009-08-18 00:10:30",1160950,3.612,60.04,2.753,0.312,17.32,107.224,17.77,18.79,45.97,0,110.7,13.27,18.58,22.0
"2009-08-18 00:11:00",1160951,3.935,60.41,3.191,0.243,17.31,107.224,17.77,18.78,45.99,0,110.7,13.26,18.58,22.4
"2009-08-18 00:11:30",1160952,4.371,64.05,4.876,0.321,17.3,107.2264,17.78,18.78,45.87,0,110.7,13.27,18.59,26.1
"2009-08-18 00:12:00",1160953,4.838,69.94,3.757,0.565,17.34,107.2279,17.78,18.77,45.87,0,110.7,13.27,18.59,31.9
"2009-08-18 00:12:30",1160954,5.492,73.56,2.012,0.188,17.36,107.2294,17.78,18.78,45.85,0,110.7,13.27,18.60,35.6
"2009-08-18 00:13:00",1160955,5.515,66.7,4.334,0.176,17.31,107.2294,17.78,18.77,45.69,0,110.7,13.27,18.60,28.7
"2009-08-18 00:13:30",1160956,4.799,64.61,3.804,0.399,17.17,107.2294,17.78,18.76,45.7,0,110.7,13.27,18.60,26.6
"2009-08-18 00:14:00",1160957,4.088,55.09,3.157,0.324,17.24,107.2294,17.78,18.77,45.83,0,110.7,13.27,18.60,17.1
"2009-08-18 00:14:30",1160958,3.637,56.47,2.785,0.296,17.16,107.2291,17.78,18.77,45.8,0,110.7,13.27,18.60,18.5
"2009-08-18 00:15:00",1160959,3.379,67.14,3.91,0.342,17.12,107.2297,17.78,18.77,45.83,0,110.7,13.27,18.60,29.1
"2009-08-18 00:15:30",1160960,3.965,65.59,1.936,0.333,17.08,107.2297,17.78,18.77,45.74,0,110.7,13.27,18.60,27.6
"2009-08-18 00:16:00",1160961,4.347,68.18,2.734,0.089,17.11,107.2291,17.78,18.76,45.67,0,110.7,13.27,18.60,30.2
"2009-08-18 00:16:30",1160962,4.463,72.87,4.173,0.144,17.15,107.2297,17.78,18.78,45.62,0,110.7,13.27,18.60,34.9
"2009-08-18 00:17:00",1160963,4.385,72.93,6.473,0.228,17.17,107.2297,17.78,18.78,45.58,0,110.7,13.27,18.60,34.9
"2009-08-18 00:17:30",1160964,4.845,76.43,1.682,0.401,17.24,107.2297,17.78,18.78,45.59,0,110.7,13.27,18.60,38.4
"2009-08-18 00:18:00",1160965,4.866,79.73,3.011,0.204,17.29,107.2297,17.78,18.78,45.58,0,110.7,13.27,18.60,41.7
"2009-08-18 00:18:30",1160966,4.937,89.2,1.593,0.357,17.19,107.2311,17.79,18.79,45.53,0,110.7,13.27,18.60,51.2
"2009-08-18 00:19:00",1160967,5.092,86.5,2.876,0.268,17.23,107.2354,17.8,18.8,45.44,0,110.7,13.27,18.61,48.5
"2009-08-18 00:19:30",1160968,4.648,85.3,2.121,0.123,17.19,107.2466,17.83,18.8,45.39,0,110.7,13.27,18.64,47.3
"2009-08-18 00:20:00",1160969,4.543,88.4,2.558,0.156,17.12,107.2534,17.84,18.81,45.42,0,110.7,13.27,18.66,50.4
"2009-08-18 00:20:30",1160970,4.014,90,3.029,0.218,17.07,107.2556,17.85,18.8,45.34,0,110.7,13.27,18.66,52.0
"2009-08-18 00:21:00",1160971,4.397,90.2,3.481,0.361,17.06,107.2587,17.86,18.81,45.35,0,110.7,13.27,18.67,52.2
"2009-08-18 00:21:30",1160972,4.787,90.5,1.66,0.148,17,107.2624,17.87,18.81,45.31,0,110.7,13.27,18.68,52.5
"2009-08-18 00:22:00",1160973,4.164,92.4,2.784,0.328,17,107.2635,17.87,18.82,45.31,0,110.7,13.27,18.69,54.4
"2009-08-18 00:22:30",1160974,4.635,86.6,4.492,0.206,17.01,107.2635,17.87,18.83,45.22,0,110.7,13.27,18.69,48.6
"2009-08-18 00:23:00",1160975,4.499,83.3,6.545,0.422,17,107.2635,17.87,18.83,45.11,0,110.7,13.27,18.69,45.3
"2009-08-18 00:23:30",1160976,4.703,77.38,1.929,0.199,17.05,107.2635,17.87,18.83,45.02,0,110.7,13.27,18.69,39.4
"2009-08-18 00:24:00",1160977,5.02,77.45,4.833,0.157,17.12,107.2635,17.87,18.84,44.88,0,110.7,13.27,18.69,39.4
"2009-08-18 00:24:30",1160978,4.63,80.9,5.186,0.214,17.12,107.2635,17.87,18.85,44.77,0,110.7,13.27,18.69,42.9
"2009-08-18 00:25:00",1160979,4.373,67.7,4.689,0.169,17.1,107.2672,17.88,18.86,44.64,0,110.7,13.27,18.69,29.7
"2009-08-18 00:25:30",1160980,4.478,62.64,2.091,0.345,17.25,107.2776,17.91,18.87,44.66,0,110.7,13.27,18.72,24.6
"2009-08-18 00:26:00",1160981,4.098,68.17,3.99,0.385,17.29,107.2928,17.95,18.88,44.72,0,110.7,13.27,18.76,30.2
"2009-08-18 00:26:30",1160982,4.176,71.3,5.008,0.343,17.27,107.2964,17.96,18.89,44.79,0,110.7,13.27,18.77,33.3
"2009-08-18 00:27:00",1160983,3.833,67.49,5.674,0.179,17.23,107.2973,17.96,18.9,44.84,0,110.7,13.27,18.77,29.5
"2009-08-18 00:27:30",1160984,3.828,78.32,7.851,0.274,17.26,107.2973,17.96,18.9,44.96,0,110.7,13.27,18.77,40.3
"2009-08-18 00:28:00",1160985,3.793,82.3,3.185,0.167,17.26,107.2973,17.96,18.92,45.28,0,110.7,13.26,18.77,44.3
"2009-08-18 00:28:30",1160986,3.813,73.63,4.594,0.194,17.35,107.2973,17.96,18.91,45.43,0,110.7,13.26,18.77,35.6
"2009-08-18 00:29:00",1160987,3.529,68,2.396,0.255,17.41,107.2973,17.96,18.93,45,0,110.7,13.27,18.77,30.0
"2009-08-18 00:29:30",1160988,3.682,64.9,5.496,0.276,17.45,107.2995,17.96,18.94,44.93,0,110.7,13.26,18.78,26.9
"2009-08-18 00:30:00",1160989,3.325,61.36,5.244,0.17,17.55,107.3069,17.98,18.94,44.81,0,110.7,13.27,18.80,23.4
"2009-08-18 00:30:30",1160990,3.767,63.07,3.096,0.398,17.61,107.3162,18.01,18.98,44.89,0,110.7,13.27,18.82,25.1
"2009-08-18 00:31:00",1160991,3.947,65.17,6.242,0.211,17.65,107.3184,18.01,18.97,45.02,0,110.7,13.27,18.83,27.2
"2009-08-18 00:31:30",1160992,3.749,75.64,5.285,0.343,17.6,107.31,17.99,18.96,45.27,0,110.7,13.27,18.80,37.6
"2009-08-18 00:32:00",1160993,3.615,79.98,5.291,0.136,17.49,107.3083,17.99,18.95,45.52,0,110.7,13.27,18.80,42.0
"2009-08-18 00:32:30",1160994,2.72,67.13,6.763,0.524,17.57,107.3038,17.97,18.94,45.54,0,110.7,13.27,18.79,29.1
"2009-08-18 00:33:00",1160995,2.57,71.58,9.69,0.216,17.45,107.2973,17.96,18.93,45.75,0,110.7,13.27,18.77,33.6
"2009-08-18 00:33:30",1160996,3.225,79.15,3.476,0.162,17.26,107.2973,17.96,18.94,45.97,0,110.7,13.27,18.77,41.2
"2009-08-18 00:34:00",1160997,3.282,72.8,3.159,0.157,17.17,107.2973,17.96,18.94,46.19,0,110.7,13.27,18.77,34.8
"2009-08-18 00:34:30",1160998,3.127,78.08,6.969,0.159,17.13,107.2973,17.96,18.94,46.22,0,110.7,13.27,18.77,40.1
"2009-08-18 00:35:00",1160999,3.16,65.73,5.69,0.263,17.06,107.2973,17.96,18.94,46.29,0,110.7,13.27,18.77,27.7
"2009-08-18 00:35:30",1161000,3.443,61.37,2.902,0.175,17.01,107.2973,17.96,18.93,46.35,0,110.7,13.27,18.77,23.4
"2009-08-18 00:36:00",1161001,3.387,70.52,5.211,0.185,17.06,107.2973,17.96,18.92,46.4,0,110.7,13.27,18.77,32.5
"2009-08-18 00:36:30",1161002,3.125,61.33,2.902,0.145,17.03,107.2973,17.96,18.94,46.46,0,110.7,13.27,18.77,23.3
"2009-08-18 00:37:00",1161003,2.791,63.37,3.293,0.32,16.91,107.2973,17.96,18.93,46.35,0,110.7,13.27,18.77,25.4
"2009-08-18 00:37:30",1161004,3.674,47.33,5.935,0.494,17.01,107.2981,17.96,18.94,46.01,0,110.7,13.27,18.77,9.3
"2009-08-18 00:38:00",1161005,4.082,52.78,3.549,0.156,17.07,107.3063,17.98,18.95,44.77,0,110.7,13.27,18.80,14.8
"2009-08-18 00:38:30",1161006,3.953,54.3,1.759,0.278,16.98,107.3192,18.01,18.92,44.52,0,110.7,13.27,18.83,16.3
"2009-08-18 00:39:00",1161007,3.429,55.49,5.133,0.282,16.98,107.3279,18.04,18.95,44.7,0,110.7,13.27,18.85,17.5
"2009-08-18 00:39:30",1161008,2.886,57.16,3.398,0.146,16.91,107.3299,18.04,18.96,44.81,0,110.7,13.27,18.86,19.2
"2009-08-18 00:40:00",1161009,3.268,49.99,6.174,0.399,16.89,107.3296,18.04,18.96,44.8,0,110.7,13.27,18.86,12.0
"2009-08-18 00:40:30",1161010,3.703,49.15,2.491,0.234,16.91,107.3278,18.04,18.97,44.49,0,110.7,13.27,18.85,11.2
"2009-08-18 00:41:00",1161011,4.035,50.29,2.188,0.115,16.98,107.3269,18.03,18.98,44.37,0,110.7,13.27,18.85,12.3
"2009-08-18 00:41:30",1161012,4.197,50.55,1.485,0.224,16.94,107.3362,18.06,18.99,44.38,0,110.7,13.27,18.87,12.5
"2009-08-18 00:42:00",1161013,4.648,51.06,2.324,0.103,17.01,107.3549,18.11,19,44.37,0,110.7,13.27,18.92,13.1
"2009-08-18 00:42:30",1161014,4.519,54.24,1.989,0.182,17.02,107.354,18.1,19.03,44.2,0,110.7,13.26,18.92,16.2
"2009-08-18 00:43:00",1161015,4.44,54.9,1.7,0.259,17.04,107.3513,18.1,19.04,44.18,0,110.7,13.27,18.91,16.9
"2009-08-18 00:43:30",1161016,4.4,53.78,1.721,0.176,17.1,107.3503,18.09,19.06,44.1,0,110.7,13.26,18.91,15.8
"2009-08-18 00:44:00",1161017,3.938,55.68,2.557,0.162,17.15,107.3642,18.13,19.06,44.23,0,110.7,13.26,18.94,17.7
"2009-08-18 00:44:30",1161018,3.653,56.98,2.546,0.175,17.23,107.3777,18.16,19.08,44.18,0,110.7,13.26,18.98,19.0
"2009-08-18 00:45:00",1161019,3.936,56.56,2.276,0.201,17.19,107.3778,18.16,19.1,44.17,0,110.7,13.26,18.98,18.6
"2009-08-18 00:45:30",1161020,3.828,62.14,2.205,0.166,17.24,107.3793,18.17,19.12,44.38,0,110.7,13.26,18.98,24.1
"2009-08-18 00:46:00",1161021,4.038,51.72,1.85,0.186,17.32,107.3748,18.16,19.12,44.28,0,110.7,13.26,18.97,13.7
"2009-08-18 00:46:30",1161022,3.805,53.92,0.93,0.092,17.21,107.3768,18.16,19.14,43.97,0,110.7,13.26,18.98,15.9
"2009-08-18 00:47:00",1161023,3.703,57.38,1.006,0.139,17.33,107.3829,18.18,19.16,43.71,0,110.7,13.26,18.99,19.4
"2009-08-18 00:47:30",1161024,3.815,68.11,2.685,0.248,17.28,107.3914,18.2,19.17,43.85,0,110.7,13.27,19.01,30.1
"2009-08-18 00:48:00",1161025,3.924,70.79,5.358,0.267,17.31,107.3972,18.21,19.17,44.43,0,110.7,13.27,19.03,32.8
"2009-08-18 00:48:30",1161026,4.218,69.67,3.576,0.537,17.36,107.3969,18.21,19.18,44.59,0,110.7,13.27,19.03,31.7
"2009-08-18 00:49:00",1161027,4.419,66.69,3.773,0.362,17.28,107.3925,18.2,19.19,44.34,0,110.7,13.27,19.02,28.7
"2009-08-18 00:49:30",1161028,4.641,63.24,2.125,0.133,17.27,107.3934,18.2,19.19,44.02,0,110.7,13.27,19.02,25.2
"2009-08-18 00:50:00",1161029,4.995,65.25,2.568,0.152,17.39,107.3918,18.2,19.18,43.82,0,110.7,13.27,19.02,27.2
"2009-08-18 00:50:30",1161030,5.088,63.28,2.496,0.101,17.27,107.3845,18.18,19.18,43.99,0,110.7,13.27,19.00,25.3
"2009-08-18 00:51:00",1161031,5.382,66.37,3.005,0.343,17.4,107.3749,18.16,19.17,44.08,0,110.7,13.27,18.97,28.4
"2009-08-18 00:51:30",1161032,5.142,80.2,5.576,0.439,17.54,107.3693,18.14,19.18,44.44,0,110.7,13.27,18.96,42.2
"2009-08-18 00:52:00",1161033,4.625,81.1,7.247,0.323,17.6,107.3723,18.15,19.18,44.63,0,110.7,13.27,18.97,43.1
"2009-08-18 00:52:30",1161034,3.729,72.75,2.513,0.206,17.5,107.3711,18.15,19.16,44.57,0,110.7,13.27,18.96,34.8
"2009-08-18 00:53:00",1161035,4.031,73.61,3.513,0.172,17.5,107.3711,18.15,19.17,44.35,0,110.7,13.27,18.96,35.6
"2009-08-18 00:53:30",1161036,4.585,72.21,2.422,0.155,17.54,107.3742,18.15,19.14,44.21,0,110.7,13.27,18.97,34.2
"2009-08-18 00:54:00",1161037,4.179,67.87,4.707,0.114,17.53,107.3641,18.13,19.13,44.22,0,110.7,13.27,18.94,29.9
"2009-08-18 00:54:30",1161038,3.913,66.63,2.352,0.083,17.55,107.3467,18.08,19.14,44.34,0,110.7,13.27,18.90,28.6
"2009-08-18 00:55:00",1161039,4.211,62.63,3.18,0.204,17.65,107.344,18.08,19.13,44.44,0,110.7,13.27,18.89,24.6
"2009-08-18 00:55:30",1161040,3.677,62.37,4.19,0.292,17.65,107.3464,18.08,19.12,44.55,0,110.7,13.27,18.90,24.4
"2009-08-18 00:56:00",1161041,3.771,68.46,3.661,0.417,17.69,107.3482,18.09,19.1,44.67,0,110.7,13.27,18.90,30.5
"2009-08-18 00:56:30",1161042,3.703,67.3,3.638,0.15,17.67,107.3504,18.09,19.1,44.83,0,110.7,13.27,18.91,29.3
"2009-08-18 00:57:00",1161043,3.956,67.14,2.533,0.313,17.66,107.3467,18.08,19.08,44.92,0,110.7,13.27,18.90,29.1
"2009-08-18 00:57:30",1161044,3.631,68.19,4.06,0.184,17.67,107.3262,18.03,19.07,44.96,0,110.7,13.27,18.85,30.2
"2009-08-18 00:58:00",1161045,3.764,79.24,1.777,0.106,17.56,107.3187,18.01,19.06,44.83,0,110.7,13.27,18.83,41.2
"2009-08-18 00:58:30",1161046,3.751,81.9,3.771,0.112,17.68,107.3181,18.01,19.05,44.5,0,110.7,13.27,18.83,43.9
"2009-08-18 00:59:00",1161047,3.586,84.1,3.095,0.18,17.7,107.3226,18.02,19.02,44.51,0,110.7,13.27,18.84,46.1
"2009-08-18 00:59:30",1161048,3.386,91.7,2.271,0.245,17.72,107.3226,18.02,19.02,44.67,0,110.7,13.26,18.84,53.7
"2009-08-18 01:00:00",1161049,3.431,85.6,5.612,0.278,17.72,107.3139,18,19.02,44.69,0,110.7,13.26,18.81,47.6
"2009-08-18 01:00:30",1161050,3.679,85.2,2.202,0.138,17.75,107.2999,17.96,19,44.52,0,110.7,13.26,18.78,47.2
"2009-08-18 01:01:00",1161051,3.564,85.9,1.562,0.107,17.82,107.2937,17.95,18.98,44.49,0,110.7,13.26,18.76,47.9
"2009-08-18 01:01:30",1161052,3.378,80.7,3.241,0.201,17.69,107.2946,17.95,18.97,44.48,0,110.7,13.26,18.77,42.7
"2009-08-18 01:02:00",1161053,3.698,77.82,2.604,0.212,17.71,107.2964,17.96,18.95,44.54,0,110.7,13.26,18.77,39.8
"2009-08-18 01:02:30",1161054,3.526,80.6,5.274,0.164,17.74,107.297,17.96,18.95,44.76,0,110.7,13.27,18.77,42.6
"2009-08-18 01:03:00",1161055,2.884,83.7,4.904,0.493,17.7,107.2899,17.94,18.92,44.79,0,110.7,13.27,18.75,45.7
"2009-08-18 01:03:30",1161056,3.761,87.3,2.522,0.26,17.68,107.2686,17.88,18.91,44.72,0,110.7,13.27,18.70,49.3
"2009-08-18 01:04:00",1161057,3.963,97.5,2.063,0.143,17.61,107.2635,17.87,18.9,44.86,0,110.7,13.27,18.69,59.5
"2009-08-18 01:04:30",1161058,3.837,92.4,4.294,0.141,17.64,107.2635,17.87,18.89,44.81,0,110.7,13.27,18.69,54.4
"2009-08-18 01:05:00",1161059,3.67,93.8,3.047,0.075,17.68,107.2635,17.87,18.87,44.76,0,110.7,13.27,18.69,55.8
"2009-08-18 01:05:30",1161060,3.605,93.1,2.933,0.133,17.74,107.2632,17.87,18.86,44.73,0,110.7,13.27,18.68,55.1
"2009-08-18 01:06:00",1161061,3.685,97.7,8.98,0.116,17.65,107.2553,17.85,18.87,44.76,0,110.7,13.27,18.66,59.7
"2009-08-18 01:06:30",1161062,3.59,98,3.728,0.166,17.73,107.2421,17.82,18.85,44.8,0,110.7,13.27,18.63,60.0
"2009-08-18 01:07:00",1161063,3.607,98.7,2.134,0.187,17.72,107.23,17.78,18.84,45.02,0,110.7,13.27,18.60,60.7
"2009-08-18 01:07:30",1161064,3.445,95.5,1.93,0.108,17.8,107.2297,17.78,18.82,45.07,0,110.7,13.28,18.60,57.5
"2009-08-18 01:08:00",1161065,3.279,99.7,2.856,0.141,17.69,107.2297,17.78,18.81,45.22,0,110.7,13.28,18.60,61.7
"2009-08-18 01:08:30",1161066,3.178,95.2,2.455,0.164,17.69,107.2297,17.78,18.79,45.28,0,110.7,13.28,18.60,57.2
"2009-08-18 01:09:00",1161067,3.032,101.7,3.043,0.086,17.6,107.2286,17.78,18.79,45.47,0,110.7,13.28,18.60,63.7
"2009-08-18 01:09:30",1161068,3.171,106.7,3.804,0.284,17.7,107.2154,17.75,18.77,45.53,0,110.7,13.28,18.56,68.7
"2009-08-18 01:10:00",1161069,3.459,107.4,4.936,0.311,17.69,107.2041,17.72,18.79,45.43,0,110.7,13.28,18.53,69.4
"2009-08-18 01:10:30",1161070,4.106,103.7,3.624,0.245,17.7,107.1993,17.71,18.78,45.21,0,110.7,13.28,18.52,65.7
"2009-08-18 01:11:00",1161071,3.847,99,6.72,0.211,17.67,107.1959,17.7,18.75,45.32,0,110.7,13.28,18.51,61.0
"2009-08-18 01:11:30",1161072,3.815,101.9,8.06,0.23,17.68,107.1959,17.7,18.75,45.42,0,110.7,13.28,18.51,63.9
"2009-08-18 01:12:00",1161073,3.64,110.3,3.66,0.064,17.68,107.1959,17.7,18.73,45.34,0,110.7,13.28,18.51,72.3
"2009-08-18 01:12:30",1161074,3.521,107.6,2.358,0.123,17.71,107.1959,17.7,18.72,45.36,0,110.7,13.28,18.51,69.6
"2009-08-18 01:13:00",1161075,3.347,108.8,3.06,0.139,17.68,107.1959,17.7,18.71,45.41,0,110.7,13.28,18.51,70.8
"2009-08-18 01:13:30",1161076,3.198,110.6,2.772,0.191,17.63,107.1959,17.7,18.7,45.37,0,110.7,13.28,18.51,72.6
"2009-08-18 01:14:00",1161077,3.254,103.1,4.918,0.265,17.7,107.1959,17.7,18.7,45.38,0,110.7,13.28,18.51,65.1
"2009-08-18 01:14:30",1161078,3.309,101.4,3.386,0.074,17.74,107.1954,17.7,18.68,45.42,0,110.7,13.28,18.51,63.4
"2009-08-18 01:15:00",1161079,3.581,101.4,1.608,0.067,17.77,107.1906,17.68,18.7,45.34,0,110.6,13.28,18.50,63.4
"2009-08-18 01:15:30",1161080,3.485,102.8,2.284,0.091,17.77,107.1836,17.67,18.68,45.29,0,110.6,13.28,18.48,64.8
"2009-08-18 01:16:00",1161081,3.505,92,3.287,0.146,17.74,107.1768,17.65,18.67,45.31,0,110.6,13.28,18.46,54.0
"2009-08-18 01:16:30",1161082,3.538,92,1.525,0.168,17.79,107.1706,17.63,18.68,45.29,0,110.6,13.28,18.45,54.0
"2009-08-18 01:17:00",1161083,3.55,94.6,2.871,0.126,17.8,107.1672,17.62,18.68,45.26,0,110.6,13.27,18.44,56.6
"2009-08-18 01:17:30",1161084,3.48,104.5,4.502,0.111,17.74,107.1647,17.62,18.68,45.28,0,110.6,13.27,18.43,66.5
"2009-08-18 01:18:00",1161085,3.169,107.2,2.816,0.114,17.71,107.1622,17.61,18.67,45.33,0,110.6,13.27,18.42,69.2
"2009-08-18 01:18:30",1161086,2.994,109.1,2.709,0.093,17.66,107.1622,17.61,18.67,45.32,0,110.6,13.27,18.42,71.1
"2009-08-18 01:19:00",1161087,2.896,107.7,3.351,0.087,17.78,107.1622,17.61,18.65,45.36,0,110.6,13.27,18.42,69.7
"2009-08-18 01:19:30",1161088,2.874,104.8,1.995,0.103,17.81,107.1622,17.61,18.65,45.36,0,110.6,13.27,18.42,66.8
"2009-08-18 01:20:00",1161089,2.797,104.3,3.267,0.108,17.79,107.1622,17.61,18.66,45.44,0,110.6,13.27,18.42,66.3
"2009-08-18 01:20:30",1161090,2.755,105.8,2.917,0.097,17.76,107.1622,17.61,18.67,45.49,0,110.6,13.28,18.42,67.8
"2009-08-18 01:21:00",1161091,2.987,97.3,7.763,0.116,17.76,107.1622,17.61,18.66,45.64,0,110.6,13.28,18.42,59.3
"2009-08-18 01:21:30",1161092,3.086,77.35,3.047,0.31,17.67,107.1622,17.61,18.66,45.6,0,110.6,13.28,18.42,39.3
"2009-08-18 01:22:00",1161093,2.73,74.12,4.254,0.251,17.67,107.1622,17.61,18.64,45.64,0,110.6,13.28,18.42,36.1
"2009-08-18 01:22:30",1161094,2.78,88.9,2.839,0.166,17.69,107.1622,17.61,18.64,45.83,0,110.6,13.28,18.42,50.9
"2009-08-18 01:23:00",1161095,3.296,84.6,1.7,0.221,17.74,107.1622,17.61,18.63,46.01,0,110.6,13.28,18.42,46.6
"2009-08-18 01:23:30",1161096,3.317,90.6,1.931,0.18,17.61,107.1622,17.61,18.63,45.91,0,110.6,13.28,18.42,52.6
"2009-08-18 01:24:00",1161097,3.285,80.5,6.273,0.172,17.64,107.1622,17.61,18.64,45.87,0,110.6,13.28,18.42,42.5
"2009-08-18 01:24:30",1161098,3.079,76.52,1.835,0.154,17.6,107.1616,17.61,18.63,45.91,0,110.6,13.28,18.42,38.5
"2009-08-18 01:25:00",1161099,2.678,69.6,5.873,0.126,17.5,107.1605,17.61,18.61,45.86,0,110.6,13.28,18.42,31.6
"2009-08-18 01:25:30",1161100,2.791,79.61,2.589,0.096,17.56,107.1546,17.59,18.62,45.92,0,110.6,13.28,18.40,41.6
"2009-08-18 01:26:00",1161101,2.648,78.7,4.873,0.19,17.6,107.1536,17.59,18.61,45.93,0,110.6,13.28,18.40,40.7
"2009-08-18 01:26:30",1161102,3.128,77.34,1.766,0.189,17.57,107.1539,17.59,18.61,45.96,0,110.6,13.28,18.40,39.3
"2009-08-18 01:27:00",1161103,3.119,74.17,3.253,0.155,17.55,107.1546,17.59,18.61,46.01,0,110.6,13.28,18.40,36.2
"2009-08-18 01:27:30",1161104,3.192,80.8,2.268,0.075,17.53,107.1471,17.57,18.62,46.02,0,110.6,13.29,18.39,42.8
"2009-08-18 01:28:00",1161105,3.387,84.2,0.951,0.091,17.74,107.1383,17.55,18.62,46.06,0,110.6,13.29,18.36,46.2
"2009-08-18 01:28:30",1161106,3.213,84.2,1.211,0.097,17.75,107.1362,17.54,18.6,45.98,0,110.6,13.29,18.36,46.2
"2009-08-18 01:29:00",1161107,2.95,85,1.859,0.108,17.68,107.1374,17.55,18.6,46.02,0,110.6,13.29,18.36,47.0
"2009-08-18 01:29:30",1161108,2.945,84.5,3.178,0.123,17.57,107.1404,17.56,18.59,46.04,0,110.6,13.29,18.37,46.5
"2009-08-18 01:30:00",1161109,3.166,87.9,8.53,0.233,17.59,107.145,17.57,18.59,45.93,0,110.6,13.29,18.38,49.9
"2009-08-18 01:30:30",1161110,3.306,94.6,5.636,0.252,17.64,107.1459,17.57,18.58,45.77,0,110.6,13.29,18.38,56.6
"2009-08-18 01:31:00",1161111,3.649,102.7,2.188,0.203,17.79,107.1465,17.57,18.6,45.56,0,110.6,13.29,18.38,64.7
"2009-08-18 01:31:30",1161112,3.621,99.1,2.169,0.148,17.71,107.1474,17.57,18.59,45.58,0,110.6,13.29,18.39,61.1
"2009-08-18 01:32:00",1161113,3.59,104.4,1.006,0.092,17.75,107.1495,17.58,18.58,45.38,0,110.6,13.29,18.39,66.4
"2009-08-18 01:32:30",1161114,3.737,101.2,2.271,0.061,17.65,107.1442,17.56,18.56,44.94,0,110.6,13.28,18.38,63.2
"2009-08-18 01:33:00",1161115,3.831,99.4,2.749,0.116,17.64,107.1431,17.56,18.58,45.15,0,110.6,13.28,18.38,61.4
"2009-08-18 01:33:30",1161116,3.784,103.8,2.929,0.244,17.73,107.1426,17.56,18.55,45.3,0,110.6,13.28,18.37,65.8
"2009-08-18 01:34:00",1161117,3.875,96.4,2.75,0.145,17.68,107.1391,17.55,18.56,45.34,0,110.6,13.29,18.37,58.4
"2009-08-18 01:34:30",1161118,3.93,103.1,1.976,0.135,17.71,107.1324,17.53,18.54,45.57,0,110.6,13.29,18.35,65.1
"2009-08-18 01:35:00",1161119,3.846,105.7,3.487,0.148,17.69,107.1259,17.52,18.55,45.79,0,110.6,13.29,18.33,67.7
"2009-08-18 01:35:30",1161120,3.752,108.1,1.139,0.103,17.65,107.1287,17.53,18.54,45.7,0,110.6,13.28,18.34,70.1
"2009-08-18 01:36:00",1161121,3.556,105.2,2.839,0.104,17.75,107.1278,17.52,18.55,45.83,0,110.6,13.29,18.34,67.2
"2009-08-18 01:36:30",1161122,3.591,107.2,1.495,0.071,17.63,107.1266,17.52,18.54,45.93,0,110.6,13.29,18.33,69.2
"2009-08-18 01:37:00",1161123,3.75,106.8,2.487,0.135,17.65,107.1287,17.53,18.53,45.97,0,110.6,13.29,18.34,68.8
"2009-08-18 01:37:30",1161124,3.522,100.6,1.799,0.158,17.75,107.1308,17.53,18.55,45.97,0,110.6,13.29,18.34,62.6
"2009-08-18 01:38:00",1161125,3.479,101.7,1.221,0.125,17.81,107.129,17.53,18.54,46.06,0,110.6,13.29,18.34,63.7
"2009-08-18 01:38:30",1161126,3.868,100.8,1.764,0.093,17.7,107.1296,17.53,18.52,45.91,0,110.6,13.29,18.34,62.8
"2009-08-18 01:39:00",1161127,3.682,103.4,1.372,0.137,17.74,107.1308,17.53,18.52,45.83,0,110.6,13.29,18.34,65.4
"2009-08-18 01:39:30",1161128,3.709,103.7,1.003,0.092,17.7,107.1308,17.53,18.53,45.8,0,110.6,13.29,18.34,65.7
"2009-08-18 01:40:00",1161129,3.812,103.1,1.452,0.113,17.7,107.1305,17.53,18.52,45.73,0,110.6,13.29,18.34,65.1
"2009-08-18 01:40:30",1161130,3.741,104.5,2.532,0.103,17.69,107.1308,17.53,18.52,45.76,0,110.6,13.29,18.34,66.5
"2009-08-18 01:41:00",1161131,3.852,106,1.624,0.134,17.64,107.1308,17.53,18.52,45.85,0,110.6,13.29,18.34,68.0
"2009-08-18 01:41:30",1161132,3.935,104.1,0.937,0.051,17.67,107.1308,17.53,18.52,45.92,0,110.6,13.29,18.34,66.1
"2009-08-18 01:42:00",1161133,3.867,105.4,1.036,0.047,17.59,107.1308,17.53,18.51,45.95,0,110.6,13.29,18.34,67.4
"2009-08-18 01:42:30",1161134,3.823,108.3,0.711,0.081,17.7,107.1305,17.53,18.51,45.92,0,110.6,13.29,18.34,70.3
"2009-08-18 01:43:00",1161135,4.016,107.5,0.962,0.069,17.74,107.1302,17.53,18.49,46.02,0,110.6,13.3,18.34,69.5
"2009-08-18 01:43:30",1161136,3.892,110.6,2.083,0.072,17.7,107.1294,17.53,18.51,46.14,0,110.6,13.3,18.34,72.6
"2009-08-18 01:44:00",1161137,3.914,112.6,2.374,0.075,17.7,107.1249,17.52,18.51,46.23,0,110.6,13.3,18.33,74.6
"2009-08-18 01:44:30",1161138,3.55,117.7,1.516,0.063,17.46,107.1206,17.5,18.5,46.52,0,110.6,13.3,18.32,79.7
"2009-08-18 01:45:00",1161139,3.936,115.1,2.004,0.194,17.64,107.117,17.5,18.5,46.52,0,110.6,13.3,18.31,77.1
"2009-08-18 01:45:30",1161140,3.929,113.6,1.106,0.067,17.53,107.1181,17.5,18.51,46.4,0,110.6,13.3,18.31,75.6
"2009-08-18 01:46:00",1161141,4.262,111.4,1.024,0.157,17.55,107.1083,17.47,18.49,46.39,0,110.6,13.3,18.29,73.4
"2009-08-18 01:46:30",1161142,4.44,111.2,1.334,0.132,17.61,107.1007,17.45,18.49,46.25,0,110.6,13.3,18.27,73.2
"2009-08-18 01:47:00",1161143,4.549,109.4,1.722,0.115,17.66,107.0975,17.45,18.49,46.19,0,110.6,13.3,18.26,71.4
"2009-08-18 01:47:30",1161144,4.334,111,2.169,0.126,17.67,107.097,17.44,18.48,46.19,0,110.6,13.3,18.26,73.0